Regional Weather Roundup
Issued by NWS

Home | Current Version | Previous Version | Graphics & Text | Print | Product List | Glossary On
Versions: 1 2 3 4 5 6 7 8 9 10 11 12 13 14 15 16 17 18 19 20 21 22 23 24 25 26 27 28 29 30 31 32 33 34 35 36 37 38 39 40 41 42 43 44 45 46 47 48 49 50
000
ASUS43 KLSX 292307
RWRMO

WEATHER SUMMARY FOR MISSOURI
NATIONAL WEATHER SERVICE SPRINGFIELD MO
500 PM CST THU JAN 29 2015

NOTE: "FAIR" INDICATES FEW OR NO CLOUDS BELOW 12,000 FEET WITH NO
       SIGNIFICANT WEATHER AND/OR OBSTRUCTIONS TO VISIBILITY.
       CURRENT SKY AND/OR WEATHER CONDITIONS ARE NOT AVAILABLE FOR
       CHILLICOTHE AND FARMINGTON.

MOZ001>031-035>038-043-044-053-054-300000-
...NORTHERN AND WESTERN MISSOURI...

CITY           SKY/WX    TMP DP  RH WIND       PRES   REMARKS
KANSAS CTY INT MOCLDY    39  26  59 N16       30.43R
KANSAS C DTWN  MOCLDY    41  25  53 N12G24    30.43R
LEE`S SUMMIT   PTCLDY    40  25  55 N15       30.42R
ST JOSEPH      CLOUDY    39  25  57 N14       30.45R
CHILLICOTHE      N/A     39  26  59 NW10G20   30.40R
KIRKSVILLE     CLOUDY    36  26  67 NW20G29   30.35R WCI  25

$$
MOZ066>068-077>081-088>096-101>105-300000-
...SOUTHWEST MISSOURI...

CITY           SKY/WX    TMP DP  RH WIND       PRES   REMARKS
SPRINGFIELD    CLOUDY    42  27  55 NW15      30.36R
JOPLIN         CLEAR     44  28  53 N14       30.42R

$$
MOZ032>034-039>042-045>050-055>058-069>072-300000-
...CENTRAL MISSOURI...

CITY           SKY/WX    TMP DP  RH WIND       PRES   REMARKS
COLUMBIA       CLOUDY    39  28  64 NW16      30.34R
JEFFERSON CITY CLOUDY    41  28  60 NW18G31   30.35R
ROLLA          CLOUDY    39  28  64 NW12      30.30R
SEDALIA        CLOUDY    41  27  57 NW21      30.39R
WHITEMAN AFB   PTCLDY    41  26  56 N20G25    30.39R
WARRENSBURG    MOCLDY    39  27  60 NW13G22   30.41R
OSAGE BEACH    CLOUDY    43  27  52 NW7G17    30.35R

$$
MOZ051-052-059>065-300000-
...EAST CENTRAL MISSOURI...

CITY           SKY/WX    TMP DP  RH WIND       PRES   REMARKS
ST LOUIS INTL  CLOUDY    41  30  65 NW20G28   30.28R
SPIRIT OF STL  CLOUDY    41  29  62 NW18G26   30.29R
ST CHARLES     CLOUDY    38  30  73 NW16      30.29R WCI  29

$$
MOZ072>076-082>087-097>100-106>115-300000-
...SOUTH CENTRAL AND SOUTHEAST MISSOURI...

CITY           SKY/WX    TMP DP  RH WIND       PRES   REMARKS
CAPE GIRARDEAU CLOUDY    43  31  62 NW14      30.26R
FARMINGTON     CLOUDY    39  27  60 NW9       30.30R
POPLAR BLUFF   CLOUDY    43  29  57 NW15G28   30.28R
WEST PLAINS    CLOUDY    40  27  59 NW14G21   30.32R

$$


USA.gov is the U.S. government's official web portal to all federal, state and local government web resources and services.